ROCKY HARBOUR CS, NFLD. current weather conditions

sailwx.info

Wind from 290 at 7 knots gusting 19

Air temperature -9.3° C
Dewpoint -15.6° C

Last reported at 2017-Mar-26 15:00 UTC.
Time now 2017-Mar-26 17:06 UTC

Location: N 49°34' W 057°53'.
View on Google Maps.

See reports from other nearby stations

  
Tides and Currents Weather Stations Pressure Air Temp Water Temp Dewpoint Dewpoint Depression Visibility Wind Speed Wind Dir Waves Ship Positions
date/time (UTC)wind fromknots sea level pressurealtimeterstation pressurevisibilityair tempwater tempwave heightnotes
2017-Mar-26 15:00 290 7 gusting 19 -9.3
2017-Mar-26 14:00 300 6 gusting 18 -8.7
2017-Mar-26 13:00 300 6 -10.1
2017-Mar-26 12:00 320 4 -11.3
2017-Mar-26 11:00 320 6 -12.3
2017-Mar-26 10:00 310 2 -12.9
2017-Mar-26 09:00 340 2 -13.0
2017-Mar-26 08:00 330 0 -12.3
2017-Mar-26 07:00 340 1 -12.0
2017-Mar-26 06:00 340 2 -11.3
2017-Mar-26 05:00 340 2 -10.9
2017-Mar-26 04:00 340 2 -10.6
2017-Mar-26 03:00 340 2 -9.6
2017-Mar-26 02:00 340 5 -8.3
2017-Mar-26 01:00 330 2 -7.4
2017-Mar-26 00:00 310 4 -6.8
2017-Mar-25 23:00 300 0 -6.9
2017-Mar-25 22:00 330 0 -6.4
2017-Mar-25 21:00 280 6 -4.0
2017-Mar-25 20:00 310 4 gusting 14 -4.2
2017-Mar-25 19:00 310 6 -5.0
2017-Mar-25 18:00 300 4 -4.7
2017-Mar-25 17:00 250 15 gusting 24 -2.0
2017-Mar-25 16:00 250 12 gusting 20 -1.0
2017-Mar-25 15:00 250 11 gusting 18 -1.6
2017-Mar-25 14:00 230 6 -1.4
2017-Mar-25 13:00 250 6 -2.0
2017-Mar-25 12:00 170 1 -3.1
2017-Mar-25 11:00 190 5 -4.4
2017-Mar-25 10:00 160 4 -5.3
2017-Mar-25 09:00 160 5 -5.7
2017-Mar-25 08:00 150 6 -6.0
2017-Mar-25 07:00 150 6 -6.1
2017-Mar-25 06:00 160 4 -5.6
2017-Mar-25 05:00 200 2 -5.0
2017-Mar-25 04:00 220 5 -5.0
2017-Mar-25 03:00 190 0 -6.7
2017-Mar-25 02:00 -6.9
2017-Mar-25 01:00 140 1 -7.4
2017-Mar-25 00:00 -7.5
2017-Mar-24 23:00 220 1 -8.1
2017-Mar-24 22:00 -8.0
2017-Mar-24 21:00 -6.6
2017-Mar-24 20:00 240 1 -5.4
2017-Mar-24 19:00 260 7 -5.2
2017-Mar-24 18:00 260 6 -5.0
2017-Mar-24 17:00 260 4 -5.8